Погода в Линьи

Китай     35°02′08″N   118°20′05″E
темп.,
°C
ветер,
м/с
пор.,
м/с
влажн.,
%
обл.,
%
осадки,
мм/ч
давл.,
гПа
погр.,
м
8 марта, пн
пн823:00+4вюв225488 0.0 103054
02:00+3вюв115693 0.0 102922
05:00+2юв1157100 0.0 102922
08:00+4в2255100 0.0 1029139
11:00+9вюв2342100 0.0 1029568
14:00+12ююв3340100 0.0 10261092
17:00+12юв2446100 0.0 1025244
20:00+7вюв3653100 0.0 1026155
9 марта, вт
вт923:00+6вюв2561100 0.0 1027142
02:00+6юв1371100 0.1 1026156
05:00+6в1184100 0.8 102695
08:00+7вюв1282100 0.8 1027140
11:00+11в126589 0.0 1028533
14:00+15ююв335044 0.0 10261160
17:00+14ю23500 0.0 10261238
20:00+10юв22650 0.0 102826
10 марта, ср
ср1023:00+8юв23710 0.0 102942
02:00+7юв22780 0.0 102924
05:00+5ююв11890 0.0 102922
08:00+8вюв228122 0.0 1029149
11:00+14юв355242 0.0 1029870
14:00+17юв453342 0.0 10261326
17:00+15вюв354350 0.0 1025626
20:00+9в595475 0.0 1026253
11 марта, чт
чт1123:00+8вюв41059100 0.0 1026322
02:00+8юв2662100 0.0 1026307
05:00+8всв2265100 0.0 102573
08:00+8вюв346796 0.0 1027288
11:00+11юв446377 0.0 1026880
14:00+12вюв226083 0.0 1025938
17:00+12в226077 0.0 1024891
20:00+8юв237551 0.0 102540
12 марта, пт
пт1223:00+7юв23860 0.0 102639
02:00+5юв12920 0.0 102623
05:00+4вюв12940 0.0 102623
08:00+7св22840 0.0 1027139
11:00+13вюв45580 0.0 1027905
14:00+16юв44500 0.0 10241275
17:00+14вюв666736 0.0 1024888
20:00+9в488845 0.0 1025251